{"data":{"norad_id":62965,"epoch":"2026-09-21T16:16:53.561280Z","epoch_age_seconds":63281,"freshness":"FRESH","line1":"1 62965U 25029T   26264.67839770  .00014988  00000+0  45388-3 0  9993","line2":"2 62965  53.1588  36.4831 0001119  91.9575 268.1555 15.34396255 91402","mean_motion":15.34396255,"eccentricity":0.0001119,"inclination_deg":53.1588,"raan_deg":36.4831,"arg_perigee_deg":91.9575,"mean_anomaly_deg":268.1555,"bstar":0.00045388,"rev_number":9140,"period_min":93.8479871355,"perigee_km":461.94887989053,"apogee_km":463.4798624274,"semimajor_km":6840.851371159,"source":"CELESTRAK","updated_at":"2026-09-22T09:00:49.714804Z"}}